TimeCDT,TemperatureF,Dew PointF,Humidity,Sea Level PressureIn,VisibilityMPH,Wind Direction,Wind SpeedMPH,Gust SpeedMPH,PrecipitationIn,Events,Conditions,WindDirDegrees,DateUTC
12:12 AM,62.6,57.2,82,30.16,10.0,South,4.6,-,N/A,,Clear,170,2013-08-18 05:12:00
12:32 AM,64.4,55.4,73,30.16,10.0,SSE,4.6,-,N/A,,Clear,160,2013-08-18 05:32:00
12:53 AM,62.6,55.4,77,30.16,10.0,SSE,5.8,-,N/A,,Clear,160,2013-08-18 05:53:00
1:12 AM,64.4,55.4,73,30.16,10.0,South,4.6,-,N/A,,Clear,180,2013-08-18 06:12:00
1:32 AM,64.4,55.4,73,30.16,10.0,South,6.9,-,N/A,,Scattered Clouds,180,2013-08-18 06:32:00
1:53 AM,64.4,55.4,73,30.16,10.0,South,6.9,-,N/A,,Clear,180,2013-08-18 06:53:00
2:12 AM,64.4,55.4,73,30.16,10.0,South,4.6,-,N/A,,Clear,180,2013-08-18 07:12:00
2:32 AM,64.4,55.4,73,30.16,10.0,South,4.6,-,N/A,,Clear,190,2013-08-18 07:32:00
2:53 AM,62.6,55.4,77,30.16,10.0,South,3.5,-,N/A,,Clear,190,2013-08-18 07:53:00
3:12 AM,60.8,55.4,82,30.16,10.0,Calm,Calm,-,N/A,,Clear,0,2013-08-18 08:12:00
3:32 AM,60.8,55.4,82,30.16,10.0,Calm,Calm,-,N/A,,Clear,0,2013-08-18 08:32:00
3:53 AM,60.8,55.4,82,30.16,10.0,Calm,Calm,-,N/A,,Clear,0,2013-08-18 08:53:00
4:12 AM,60.8,55.4,82,30.16,10.0,South,3.5,-,N/A,,Clear,170,2013-08-18 09:12:00
4:32 AM,60.8,55.4,82,30.16,10.0,South,3.5,-,N/A,,Clear,180,2013-08-18 09:32:00
4:52 AM,60.8,55.4,82,30.17,10.0,South,3.5,-,N/A,,Clear,190,2013-08-18 09:52:00
5:12 AM,60.8,55.4,82,30.17,10.0,South,3.5,-,N/A,,Clear,190,2013-08-18 10:12:00
5:33 AM,59.0,55.4,88,30.17,10.0,South,3.5,-,N/A,,Clear,190,2013-08-18 10:33:00
5:52 AM,59.0,55.4,88,30.18,10.0,South,3.5,-,N/A,,Clear,170,2013-08-18 10:52:00
6:12 AM,59.0,55.4,88,30.18,10.0,SSW,3.5,-,N/A,,Clear,200,2013-08-18 11:12:00
6:33 AM,59.0,55.4,88,30.18,10.0,South,3.5,-,N/A,,Clear,180,2013-08-18 11:33:00
6:52 AM,59.0,55.4,88,30.18,10.0,South,4.6,-,N/A,,Clear,170,2013-08-18 11:52:00
7:12 AM,60.8,55.4,82,30.18,10.0,South,3.5,-,N/A,,Clear,170,2013-08-18 12:12:00
7:33 AM,62.6,55.4,77,30.18,10.0,Calm,Calm,-,N/A,,Clear,0,2013-08-18 12:33:00
7:52 AM,62.6,57.2,82,30.18,10.0,South,3.5,-,N/A,,Clear,180,2013-08-18 12:52:00
8:12 AM,64.4,55.4,73,30.18,10.0,South,3.5,-,N/A,,Clear,180,2013-08-18 13:12:00
8:33 AM,66.2,55.4,68,30.18,10.0,South,4.6,-,N/A,,Clear,190,2013-08-18 13:33:00
8:52 AM,66.2,57.2,73,30.17,10.0,South,4.6,-,N/A,,Clear,190,2013-08-18 13:52:00
9:12 AM,68.0,57.2,68,30.18,10.0,SSW,4.6,-,N/A,,Clear,200,2013-08-18 14:12:00
9:33 AM,69.8,57.2,64,30.17,10.0,South,4.6,-,N/A,,Clear,170,2013-08-18 14:33:00
9:52 AM,71.6,57.2,60,30.18,10.0,South,4.6,-,N/A,,Clear,170,2013-08-18 14:52:00
10:12 AM,73.4,57.2,57,30.17,10.0,South,5.8,-,N/A,,Clear,180,2013-08-18 15:12:00
10:33 AM,73.4,59.0,61,30.17,10.0,South,4.6,-,N/A,,Clear,180,2013-08-18 15:33:00
10:52 AM,73.4,57.2,57,30.17,10.0,SSE,6.9,-,N/A,,Clear,150,2013-08-18 15:52:00
11:12 AM,75.2,59.0,57,30.17,10.0,SW,3.5,-,N/A,,Clear,220,2013-08-18 16:12:00
11:33 AM,75.2,57.2,53,30.16,10.0,South,6.9,-,N/A,,Clear,170,2013-08-18 16:33:00
11:52 AM,75.2,57.2,53,30.16,10.0,SSW,8.1,-,N/A,,Clear,200,2013-08-18 16:52:00
12:12 PM,77.0,55.4,47,30.15,10.0,SSW,6.9,-,N/A,,Clear,210,2013-08-18 17:12:00
12:33 PM,78.8,55.4,44,30.15,10.0,SSW,4.6,-,N/A,,Clear,200,2013-08-18 17:33:00
12:52 PM,77.0,53.6,44,30.14,10.0,South,6.9,-,N/A,,Scattered Clouds,190,2013-08-18 17:52:00
1:12 PM,78.8,53.6,42,30.14,10.0,SSW,5.8,-,N/A,,Scattered Clouds,200,2013-08-18 18:12:00
1:33 PM,80.6,53.6,39,30.13,10.0,South,8.1,-,N/A,,Clear,180,2013-08-18 18:33:00
1:52 PM,78.8,55.4,44,30.12,10.0,South,9.2,-,N/A,,Clear,190,2013-08-18 18:52:00
2:12 PM,78.8,55.4,44,30.11,10.0,South,8.1,-,N/A,,Clear,190,2013-08-18 19:12:00
2:33 PM,80.6,53.6,39,30.10,10.0,South,10.4,16.1,N/A,,Clear,180,2013-08-18 19:33:00
2:52 PM,78.8,53.6,42,30.10,10.0,South,8.1,-,N/A,,Scattered Clouds,190,2013-08-18 19:52:00
3:12 PM,80.6,55.4,42,30.11,10.0,South,6.9,-,N/A,,Scattered Clouds,180,2013-08-18 20:12:00
3:33 PM,78.8,53.6,42,30.11,10.0,South,6.9,-,N/A,,Clear,190,2013-08-18 20:33:00
3:52 PM,80.6,53.6,39,30.11,10.0,SSE,5.8,-,N/A,,Clear,160,2013-08-18 20:52:00
4:12 PM,80.6,53.6,39,30.11,10.0,SSW,10.4,-,N/A,,Clear,200,2013-08-18 21:12:00
4:33 PM,80.6,55.4,42,30.10,10.0,SSW,9.2,-,N/A,,Scattered Clouds,210,2013-08-18 21:33:00
4:52 PM,78.8,55.4,44,30.10,10.0,SSW,5.8,-,N/A,,Scattered Clouds,210,2013-08-18 21:52:00
5:12 PM,78.8,55.4,44,30.09,10.0,SSW,5.8,-,N/A,,Clear,200,2013-08-18 22:12:00
5:33 PM,78.8,55.4,44,30.09,10.0,South,6.9,-,N/A,,Scattered Clouds,190,2013-08-18 22:33:00
5:52 PM,78.8,55.4,44,30.08,10.0,South,8.1,-,N/A,,Clear,190,2013-08-18 22:52:00
6:12 PM,77.0,57.2,50,30.07,10.0,South,5.8,-,N/A,,Clear,190,2013-08-18 23:12:00
6:32 PM,77.0,57.2,50,30.07,10.0,South,4.6,-,N/A,,Clear,190,2013-08-18 23:32:00
6:52 PM,75.2,57.2,53,30.07,10.0,South,6.9,-,N/A,,Clear,190,2013-08-18 23:52:00
7:13 PM,75.2,57.2,53,30.07,10.0,South,4.6,-,N/A,,Clear,180,2013-08-19 00:13:00
7:32 PM,73.4,57.2,57,30.07,10.0,South,4.6,-,N/A,,Clear,190,2013-08-19 00:32:00
7:52 PM,73.4,57.2,57,30.08,10.0,South,4.6,-,N/A,,Clear,190,2013-08-19 00:52:00
8:13 PM,71.6,59.0,64,30.08,10.0,Calm,Calm,-,N/A,,Clear,0,2013-08-19 01:13:00
8:32 PM,71.6,59.0,64,30.07,10.0,South,3.5,-,N/A,,Clear,180,2013-08-19 01:32:00
8:52 PM,69.8,59.0,68,30.08,10.0,Calm,Calm,-,N/A,,Clear,0,2013-08-19 01:52:00
9:13 PM,68.0,59.0,73,30.08,10.0,SSE,4.6,-,N/A,,Clear,150,2013-08-19 02:13:00
9:32 PM,66.2,60.8,83,30.07,10.0,SSE,5.8,-,N/A,,Clear,160,2013-08-19 02:32:00
9:52 PM,66.2,60.8,83,30.07,10.0,SSE,5.8,-,N/A,,Clear,160,2013-08-19 02:52:00
10:13 PM,66.2,60.8,83,30.07,10.0,South,5.8,-,N/A,,Clear,170,2013-08-19 03:13:00
10:32 PM,66.2,59.0,78,30.06,10.0,South,5.8,-,N/A,,Clear,170,2013-08-19 03:32:00
10:52 PM,66.2,59.0,78,30.07,10.0,South,4.6,-,N/A,,Clear,180,2013-08-19 03:52:00
11:13 PM,66.2,59.0,78,30.07,10.0,South,5.8,-,N/A,,Clear,180,2013-08-19 04:13:00
11:32 PM,66.2,59.0,78,30.07,10.0,South,5.8,-,N/A,,Clear,170,2013-08-19 04:32:00
11:52 PM,66.2,59.0,78,30.07,10.0,South,4.6,-,N/A,,Clear,190,2013-08-19 04:52:00